Preview of NWS' New Version of Forecast
This preview is not operational and should not be used for support decisions.

Regional Weather Roundup (RWR)

Issued by Sioux Falls, SD (FSD)

                            
000
ASUS43 KFSD 220410
RWRFSD

WEATHER ROUNDUP FOR SE SOUTH DAKOTA/SW MINNESOTA/NW IOWA
NATIONAL WEATHER SERVICE SIOUX FALLS SD
1000 PM CST MON JAN 21 2019

NOTE: "FAIR" INDICATES FEW OR NO CLOUDS BELOW 12,000 FEET WITH NO
SIGNIFICANT WEATHER AND OR OBSTRUCTIONS TO VISIBILITY.


SDZ038>040-050-052>070-220500-
SOUTHEAST SOUTH DAKOTA
  
CITY           SKY/WX    TMP DP  RH WIND       PRES   REMARKS
BROOKINGS      LGT SNOW  13  11  92 SE16      29.87F FOG     WCI  -3  
CHAMBERLAIN    CLOUDY    20  20 100 SE7       29.80R FOG     WCI  11  
HURON          LGT SNOW  18  15  88 SE12      29.86R FOG     WCI   5  
MADISON          N/A     14  14 100 SE13      29.85S FOG     WCI   0  
MITCHELL       CLOUDY    20  16  84 S14       29.85S WCI   7          
SIOUX FALLS    LGT SNOW  17  14  88 SE13      29.86F FOG     WCI   4  
WINNER         CLOUDY    20  17  88 SE9       29.76R FOG     WCI   9  
YANKTON        MIX PCPN  20  18  92 SE9       29.84S WCI   9          
$$

MNZ071-072-080-081-089-090-097-098-220500-
SOUTHWEST MINNESOTA
  
CITY           SKY/WX    TMP DP  RH WIND       PRES   REMARKS
FAIRMONT       LGT SNOW  14  11  87 SE23      29.97F FOG     WCI  -5  
JACKSON        LGT SNOW  14  12  92 SE17      29.93F WCI  -3          
LUVERNE        LGT SNOW  16  12  86 SE13      29.89F WCI   2          
MARSHALL       LGT SNOW  14  11  87 SE16      29.95S FOG     WCI  -2  
MONTEVIDEO     CLOUDY    12   9  85 S18       29.99  WCI  -5          
PIPESTONE      LGT SNOW  14  12  92 SE14G20   29.87S WCI  -1          
REDWOOD FALLS  LGT SNOW  13  10  88 SE17G24   30.00F FOG     WCI  -4  
TRACY          LGT SNOW  15  13  90 SE14      29.94F WCI   0          
WINDOM         LGT SNOW  14  10  85 SE16      29.93F WCI  -2          
WORTHINGTON    LGT SNOW  14  11  87 SE18      29.90S FOG     WCI  -3  
$$

IAZ001>003-012>014-020>022-031-032-NEZ013-014-SDZ071-220500-
NORTHWEST IOWA
  
CITY           SKY/WX    TMP DP  RH WIND       PRES   REMARKS
CHEROKEE       CLOUDY    18  15  88 SE13G22   29.90F WCI   5          
DENISON        CLOUDY    21  16  79 SE13G24   29.88F WCI   9          
ESTHERVILLE    LGT SNOW  14  11  87 SE23      29.94F FOG     WCI  -5  
ORANGE CITY    CLOUDY    18  16  93 SE10G18   29.87R WCI   6          
SHELDON        CLOUDY    16  16 100 SE18G25   29.87S WCI  -1          
SIOUX CITY     CLOUDY    20  17  88 SE16      29.86F FOG     WCI   6  
SPENCER        CLOUDY    16  13  88 SE17      29.91F FOG     WCI   0  
STORM LAKE     CLOUDY    16  16 100 SE21      29.87F WCI  -2          
$$
 
ABBREVIATIONS USED IN REMARKS
   TC - TEMPERATURE IN CELSIUS
  WCI - WIND CHILL INDEX
   HX - HEAT INDEX
  VSB - VISIBILITY